Weather History for MMOX - October, 2012

Change the Weather History Date:

Thursday, October 18, 2012

  Actual Average Record
Temperature  
Mean Temperature 70 °F -  
Max Temperature 91 °F 78 °F 91 °F (2006)
Min Temperature 50 °F 52 °F 50 °F (1996)
Cooling Degree Days 6    
Growing Degree Days 20 (Base 50)    
Moisture  
Dew Point 46 °F    
Average Humidity 46    
Maximum Humidity 87    
Minimum Humidity 14    
Precipitation  
Precipitation 0.00 in - - ()
Sea Level Pressure  
Sea Level Pressure 29.94 in    
Wind  
Wind Speed 3 mph ()    
Max Wind Speed 9 mph    
Max Gust Speed -    
Visibility 9.5 miles    
Events      
Averages and records for this station are not official NWS values.
T = Trace of Precipitation, MM = Missing Value Source: Averaged Metar Reports

Daily Weather History Graph

Daily Weather History Graph

Search for Another Location

Airport or City:

Trip Planner

Search our weather history database for the weather conditions in past years. The results will help you decide how hot, cold, wet, or windy it might be!

Date:

Astronomy

Oct. 18, 2012 Rise Set
Actual Time 7:20 AM CDT 7:03 PM CDT
Civil Twilight 6:58 AM CDT 7:24 PM CDT
Nautical Twilight 6:33 AM CDT 7:50 PM CDT
Astronomical Twilight 6:08 AM CDT 8:15 PM CDT
Moon 10:34 AM CDT (10/18) 10:08 PM CDT (10/18)
Length of Visible Light 12h 26m
Length of Day
11h 42m
Waxing Crescent, 14% of the Moon is Illuminated
Oct 18
Waxing Crescent
Oct 21
First Quarter
Oct 29
Full
Nov 6
Last Quarter
Nov 13
New

Hourly Weather History & Observations

Time (CDT) Temp. Dew Point Humidity Pressure Visibility Wind Dir Wind Speed Gust Speed Precip Events Conditions
12:45 AM 62 °F 45 °F 43% 29.81 in 9 mi NE 2.2 mph - -  
3:45 AM 57 °F 48 °F 65% 29.84 in 6 mi NE 2.2 mph - -  
5:58 AM 51.8 °F 46.4 °F 82% 30.13 in 7.0 mi NNW 4.6 mph - N/A   Scattered Clouds
6:44 AM 50.0 °F 46.4 °F 87% 29.85 in 7.0 mi NNW 5.8 mph - N/A   Scattered Clouds
6:45 AM 54 °F 47 °F 72% 29.93 in 6 mi NE 2.2 mph - -  
7:44 AM 50.0 °F 46.4 °F 87% 30.15 in 7.0 mi NNW 5.8 mph - N/A   Mostly Cloudy
8:45 AM 57.2 °F 48.2 °F 72% 30.18 in 10.0 mi North 6.9 mph - N/A   Scattered Clouds
9:30 AM 65 °F 51 °F 50% 30.02 in 12 mi NNE 2.2 mph - -   Haze
9:43 AM 60.8 °F 50.0 °F 68% 29.90 in 10.0 mi North 4.6 mph - N/A   Scattered Clouds
11:41 AM 73.4 °F 53.6 °F 50% 30.17 in 10.0 mi Calm Calm - N/A   Mostly Cloudy
12:30 PM 82 °F 54 °F 28% 29.94 in 12 mi SE 2.2 mph - -   Haze
12:41 PM 75.2 °F 53.6 °F 47% 29.79 in 10.0 mi North 3.5 mph - N/A   Mostly Cloudy
1:45 PM 80.6 °F 44.6 °F 28% 30.09 in 12.0 mi SW 5.8 mph - N/A   Mostly Cloudy
2:45 PM 82.4 °F 46.4 °F 28% 30.07 in 12.0 mi Calm Calm - N/A   Scattered Clouds
3:45 PM 91 °F 48 °F 14% 29.75 in 12 mi WSW 2.2 mph - -   Haze
3:45 PM 84.2 °F 41.0 °F 22% 29.69 in 12.0 mi NW 5.8 mph - N/A   Scattered Clouds
4:45 PM 84.2 °F 39.2 °F 20% 30.02 in 12.0 mi North 9.2 mph - N/A   Scattered Clouds
5:45 PM 84.2 °F 37.4 °F 19% 30.03 in 12.0 mi ENE 9.2 mph - N/A   Scattered Clouds
6:45 PM 78.8 °F 39.2 °F 24% 29.79 in 12.0 mi NE 6.9 mph - N/A   Mostly Cloudy
6:50 PM 79 °F 41 °F 16% 29.71 in 9 mi NE 4.5 mph - -   Haze
7:45 PM 71.6 °F 42.8 °F 35% 30.06 in 8.0 mi WNW 8.1 mph - N/A   Mostly Cloudy
8:45 PM 69.8 °F 46.4 °F 43% 30.12 in 8.0 mi Calm Calm - N/A   Scattered Clouds
9:45 PM 69 °F 47 °F 35% 29.75 in 6 mi ESE 2.2 mph - -  
10:14 PM 64.4 °F 50.0 °F 59% 29.84 in 8.0 mi Calm Calm - N/A   Scattered Clouds